H1 CPF 2 NER 2022 2 1 9 032 01 glonass139 H2 1808601 9139 43687 2022 2 1 0 0 0 2022 2 4 23 45 0 900 1 1 0 0 0 1 H9 10 0 59611 0.00000 0 824712.767 -19686867.377 16215457.534 10 0 59611 900.00000 0 1477214.249 -21419424.171 13790353.948 10 0 59611 1800.00000 0 1896298.256 -22898416.290 11097677.282 10 0 59611 2700.00000 0 2112310.506 -24072704.945 8189635.318 10 0 59611 3600.00000 0 2164784.545 -24900339.277 5122632.907 10 0 59611 4500.00000 0 2100524.769 -25350278.456 1956181.920 10 0 59611 5400.00000 0 1971381.225 -25403677.456 -1248251.199 10 0 59611 6300.00000 0 1831810.541 -25054682.059 -4428438.053 10 0 59611 7200.00000 0 1736326.473 -24310699.001 -7522597.704 10 0 59611 8100.00000 0 1736948.488 -23192129.227 -10470599.116 10 0 59611 9000.00000 0 1880757.054 -21731574.698 -13215132.897 10 0 59611 9900.00000 0 2207659.912 -19972551.470 -15702828.999 10 0 59611 10800.00000 0 2748464.856 -17967762.458 -17885298.290 10 0 59611 11700.00000 0 3523341.585 -15777001.889 -19720077.391 10 0 59611 12600.00000 0 4540738.829 -13464778.913 -21171458.108 10 0 59611 13500.00000 0 5796803.740 -11097759.565 -22211185.206 10 0 59611 14400.00000 0 7275329.363 -8742133.775 -22819008.914 10 0 59611 15300.00000 0 8948233.714 -6461017.250 -22983081.330 10 0 59611 16200.00000 0 10776551.605 -4311996.391 -22700189.063 10 0 59611 17100.00000 0 12711898.780 -2344918.300 -21975817.493 10 0 59611 18000.00000 0 14698347.880 -600017.693 -20824045.310 10 0 59611 18900.00000 0 16674638.427 893541.774 -19267271.244 10 0 59611 19800.00000 0 18576628.772 2118651.687 -17335778.094 10 0 59611 20700.00000 0 20339887.539 3070728.304 -15067142.383 10 0 59611 21600.00000 0 21902316.079 3757648.870 -12505501.048 10 0 59611 22500.00000 0 23206691.901 4199158.781 -9700689.374 10 0 59611 23400.00000 0 24203026.193 4425775.979 -6707267.212 10 0 59611 24300.00000 0 24850636.270 4477240.248 -3583452.685 10 0 59611 25200.00000 0 25119845.751 4400574.336 -389984.637 10 0 59611 26100.00000 0 24993240.991 4247840.202 2811063.409 10 0 59611 27000.00000 0 24466431.020 4073686.578 5957494.072 10 0 59611 27900.00000 0 23548279.328 3932792.699 8988197.608 10 0 59611 28800.00000 0 22260598.101 3877317.239 11844339.937 10 0 59611 29700.00000 0 20637318.191 3954461.027 14470503.899 10 0 59611 30600.00000 0 18723170.034 4204247.015 16815761.566 10 0 59611 31500.00000 0 16571931.137 4657611.480 18834656.982 10 0 59611 32400.00000 0 14244313.607 5334887.119 20488080.859 10 0 59611 33300.00000 0 11805579.820 6244742.037 21744021.041 10 0 59611 34200.00000 0 9322985.409 7383619.359 22578175.018 10 0 59611 35100.00000 0 6863155.350 8735701.314 22974413.614 10 0 59611 36000.00000 0 4489501.386 10273399.762 22925087.695 10 0 59611 36900.00000 0 2259787.051 11958353.287 22431172.603 10 0 59611 37800.00000 0 223940.127 13742890.079 21502247.961 10 0 59611 38700.00000 0 -1577797.941 15571896.537 20156313.273 10 0 59611 39600.00000 0 -3116310.041 17385014.620 18419442.713 10 0 59611 40500.00000 0 -4374570.289 19119077.340 16325285.256 10 0 59611 41400.00000 0 -5348100.662 20710681.653 13914419.100 10 0 59611 42300.00000 0 -6044899.278 22098791.979 11233572.098 10 0 59611 43200.00000 0 -6484844.146 23227265.997 8334722.460 10 0 59611 44100.00000 0 -6698598.064 24047197.186 5274096.353 10 0 59611 45000.00000 0 -6726061.143 24518975.806 2111081.377 10 0 59611 45900.00000 0 -6614436.607 24613981.486 -1092923.415 10 0 59611 46800.00000 0 -6415991.805 24315835.717 -4275698.748 10 0 59611 47700.00000 0 -6185609.446 23621160.784 -7375414.288 10 0 59611 48600.00000 0 -5978233.030 22539812.367 -10331831.968 10 0 59611 49500.00000 0 -5846315.161 21094575.010 -13087479.752 10 0 59611 50400.00000 0 -5837377.317 19320332.362 -15588772.444 10 0 59611 51300.00000 0 -5991785.156 17262746.135 -17787057.409 10 0 59611 52200.00000 0 -6340834.291 14976498.372 -19639564.524 10 0 59611 53100.00000 0 -6905228.382 12523170.086 -21110241.557 10 0 59611 54000.00000 0 -7694014.860 9968844.438 -22170458.630 10 0 59611 54900.00000 0 -8704024.253 7381534.149 -22799567.994 10 0 59611 55800.00000 0 -9919837.804 4828540.217 -22985308.157 10 0 59611 56700.00000 0 -11314285.825 2373851.699 -22724044.538 10 0 59611 57600.00000 0 -12849456.858 75694.520 -22020841.900 10 0 59611 58500.00000 0 -14478176.058 -2015668.934 -20889367.059 10 0 59611 59400.00000 0 -16145891.474 -3859798.340 -19351623.633 10 0 59611 60300.00000 0 -17792889.552 -5427515.319 -17437523.789 10 0 59611 61200.00000 0 -19356747.119 -6701865.400 -15184305.181 10 0 59611 62100.00000 0 -20774916.994 -7678563.000 -12635804.311 10 0 59611 63000.00000 0 -21987338.515 -8365902.087 -9841600.410 10 0 59611 63900.00000 0 -22938963.016 -8784137.655 -6856046.718 10 0 59611 64800.00000 0 -23582087.745 -8964365.628 -3737208.305 10 0 59611 65700.00000 0 -23878399.726 -8946949.923 -545727.519 10 0 59611 66600.00000 0 -23800643.284 -8779564.576 2656360.164 10 0 59611 67500.00000 0 -23333840.887 -8514935.056 5806836.260 10 0 59611 68400.00000 0 -22476015.894 -8208375.517 8844511.250 10 0 59611 69300.00000 0 -21238386.893 -7915227.124 11710414.265 10 0 59611 70200.00000 0 -19645025.648 -7688306.550 14348937.112 10 0 59611 71100.00000 0 -17731993.113 -7575472.972 16708910.424 10 0 59611 72000.00000 0 -15545989.949 -7617416.539 18744591.215 10 0 59611 72900.00000 0 -13142577.958 -7845761.667 20416543.250 10 0 59611 73800.00000 0 -10584046.529 -8281565.002 21692393.933 10 0 59611 74700.00000 0 -7937012.697 -8934271.155 22547453.865 10 0 59611 75600.00000 0 -5269854.038 -9801170.044 22965188.054 10 0 59611 76500.00000 0 -2650080.172 -10867378.770 22937530.462 10 0 59611 77400.00000 0 -141751.020 -12106349.059 22465036.482 10 0 59611 78300.00000 0 2196952.356 -13480879.593 21556870.797 10 0 59611 79200.00000 0 4315904.861 -14944591.610 20230630.936 10 0 59611 80100.00000 0 6174873.326 -16443806.908 18512009.752 10 0 59611 81000.00000 0 7744936.364 -17919750.643 16434302.855 10 0 59611 81900.00000 0 9009430.242 -19310987.690 14037769.802 10 0 59611 82800.00000 0 9964382.321 -20555991.277 11368860.659 10 0 59611 83700.00000 0 10618414.886 -21595736.888 8479322.066 10 0 59611 84600.00000 0 10992124.140 -22376212.901 5425199.342 10 0 59611 85500.00000 0 11116960.939 -22850742.553 2265753.521 10 0 59612 0.00000 0 11033660.893 -22982019.324 -937685.827 10 0 59612 900.00000 0 10790290.273 -22743769.553 -4122911.559 10 0 59612 1800.00000 0 10439990.730 -22121971.368 -7228046.084 10 0 59612 2700.00000 0 10038518.336 -21115577.830 -10192746.728 10 0 59612 3600.00000 0 9641681.546 -19736712.456 -12959381.174 10 0 59612 4500.00000 0 9302786.912 -18010327.865 -15474151.381 10 0 59612 5400.00000 0 9070201.183 -15973340.707 -17688143.408 10 0 59612 6300.00000 0 8985133.540 -13673278.041 -19558282.424 10 0 59612 7200.00000 0 9079732.365 -11166491.010 -21048173.989 10 0 59612 8100.00000 0 9375577.701 -8516009.677 -22128815.152 10 0 59612 9000.00000 0 9882633.789 -5789127.934 -22779161.443 10 0 59612 9900.00000 0 10598706.610 -3054818.749 -22986538.711 10 0 59612 10800.00000 0 11509430.098 -381086.951 -22746891.785 10 0 59612 11700.00000 0 12588782.309 2167630.663 -22064865.087 10 0 59612 12600.00000 0 13800110.502 4532910.049 -20953713.519 10 0 59612 13500.00000 0 15097622.550 6664528.186 -19435045.246 10 0 59612 14400.00000 0 16428282.363 8522304.406 -17538401.155 10 0 59612 15300.00000 0 17734029.819 10077518.662 -15300679.052 10 0 59612 16200.00000 0 18954231.832 11313848.516 -12765413.681 10 0 59612 17100.00000 0 20028261.290 12227786.792 -9981926.515 10 0 59612 18000.00000 0 20898094.963 12828523.672 -7004362.118 10 0 59612 18900.00000 0 21510820.557 13137299.676 -3890630.069 10 0 59612 19800.00000 0 21820946.863 13186258.317 -701273.484 10 0 59612 20700.00000 0 21792419.184 13016848.292 2501713.167 10 0 59612 21600.00000 0 21400254.773 12677844.170 5656093.390 10 0 59612 22500.00000 0 20631729.087 12223070.480 8700601.018 10 0 59612 23400.00000 0 19487062.756 11708926.520 11576131.451 10 0 59612 24300.00000 0 17979580.284 11191817.309 14226888.392 10 0 59612 25200.00000 0 16135333.736 10725599.803 16601463.766 10 0 59612 26100.00000 0 13992207.148 10359152.417 18653830.038 10 0 59612 27000.00000 0 11598538.975 10134170.380 20344226.217 10 0 59612 27900.00000 0 9011319.809 10083279.616 21639921.139 10 0 59612 28800.00000 0 6294040.084 10228548.175 22515840.022 10 0 59612 29700.00000 0 3514276.652 10580457.472 22955043.141 10 0 59612 30600.00000 0 741117.583 11137376.270 22949048.194 10 0 59612 31500.00000 0 -1957468.910 11885559.360 22497990.760 10 0 59612 32400.00000 0 -4517213.552 12799671.130 21610620.200 10 0 59612 33300.00000 0 -6879967.482 13843812.419 20304131.167 10 0 59612 34200.00000 0 -8995866.903 14973008.195 18603833.798 10 0 59612 35100.00000 0 -10825152.383 16135094.428 16542668.501 10 0 59612 36000.00000 0 -12339568.338 17272925.806 14160574.010 10 0 59612 36900.00000 0 -13523285.442 18326812.433 11503720.154 10 0 59612 37800.00000 0 -14373308.352 19237083.781 8623619.390 10 0 59612 38700.00000 0 -14899352.456 19946672.547 5576133.500 10 0 59612 39600.00000 0 -15123195.334 20403609.817 2420394.226 10 0 59612 40500.00000 0 -15077530.650 20563326.280 -782341.630 10 0 59612 41400.00000 0 -14804373.101 20390662.025 -3969880.557 10 0 59612 42300.00000 0 -14353081.935 19861499.423 -7080300.885 10 0 59612 43200.00000 0 -13778086.845 18963949.206 -10053157.813 10 0 59612 44100.00000 0 -13136412.593 17699038.553 -12830661.099 10 0 59612 45000.00000 0 -12485107.396 16080870.891 -15358802.016 10 0 59612 45900.00000 0 -11878684.171 14136249.317 -17588407.261 10 0 59612 46800.00000 0 -11366683.217 11903778.095 -19476098.994 10 0 59612 47700.00000 0 -10991459.796 9432478.710 -20985142.006 10 0 59612 48600.00000 0 -10786290.466 6779977.261 -22086161.433 10 0 59612 49500.00000 0 -10773878.582 4010337.962 -22757716.983 10 0 59612 50400.00000 0 -10965322.422 1191632.421 -22986722.441 10 0 59612 51300.00000 0 -11359589.894 -1606654.695 -22768702.340 10 0 59612 52200.00000 0 -11943522.343 -4316276.170 -22107880.703 10 0 59612 53100.00000 0 -12692367.654 -6872818.987 -21017100.114 10 0 59612 54000.00000 0 -13570820.485 -9218139.803 -19517572.497 10 0 59612 54900.00000 0 -14534526.011 -11302538.238 -17638466.311 10 0 59612 55800.00000 0 -15531983.872 -13086577.975 -15416338.034 10 0 59612 56700.00000 0 -16506772.050 -14542480.475 -12894418.862 10 0 59612 57600.00000 0 -17399996.676 -15655033.997 -10121770.498 10 0 59612 58500.00000 0 -18152864.098 -16421980.933 -7152326.612 10 0 59612 59400.00000 0 -18709266.224 -16853868.523 -4043838.927 10 0 59612 60300.00000 0 -19018269.504 -16973370.658 -856748.839 10 0 59612 61200.00000 0 -19036401.940 -16814110.741 2346992.797 10 0 59612 62100.00000 0 -18729641.104 -16419036.756 5505134.177 10 0 59612 63000.00000 0 -18075018.852 -15838418.441 8556335.260 10 0 59612 63900.00000 0 -17061774.728 -15127552.318 11441360.526 10 0 59612 64800.00000 0 -15692009.216 -14344272.429 14104228.333 10 0 59612 65700.00000 0 -13980809.091 -13546372.501 16493294.531 10 0 59612 66600.00000 0 -11955839.413 -12789048.586 18562249.437 10 0 59612 67500.00000 0 -9656418.912 -12122469.995 20271009.396 10 0 59612 68400.00000 0 -7132116.987 -11589580.531 21586486.353 10 0 59612 69300.00000 0 -4440930.322 -11224222.019 22483221.368 10 0 59612 70200.00000 0 -1647114.287 -11049658.405 22943870.741 10 0 59612 71100.00000 0 1181241.725 -11077561.799 22959536.181 10 0 59612 72000.00000 0 3974795.347 -11307502.470 22529933.293 10 0 59612 72900.00000 0 6665582.904 -11726963.878 21663395.558 10 0 59612 73800.00000 0 9189593.864 -12311881.975 20376713.843 10 0 59612 74700.00000 0 11489182.545 -13027686.328 18694814.351 10 0 59612 75600.00000 0 13515218.269 -13830799.704 16650280.802 10 0 59612 76500.00000 0 15228885.766 -14670533.690 14282729.340 10 0 59612 77400.00000 0 16603061.853 -15491301.277 11638047.547 10 0 59612 78300.00000 0 17623211.835 -16235053.873 8767511.435 10 0 59612 79200.00000 0 18287768.847 -16843840.613 5726796.761 10 0 59612 80100.00000 0 18607980.728 -17262382.262 2574903.311 10 0 59612 81000.00000 0 18607231.253 -17440551.155 -626987.365 10 0 59612 81900.00000 0 18319864.556 -17335652.077 -3816698.776 10 0 59612 82800.00000 0 17789562.452 -16914407.176 -6932267.646 10 0 59612 83700.00000 0 17067343.320 -16154560.106 -9913149.689 10 0 59612 84600.00000 0 16209267.176 -15046030.517 -12701399.210 10 0 59612 85500.00000 0 15273944.110 -13591568.848 -15242799.058 10 0 59613 0.00000 0 14319951.615 -11806882.525 -17487918.415 10 0 59613 900.00000 0 13403269.652 -9720225.703 -19393078.609 10 0 59613 1800.00000 0 12574843.249 -7371470.819 -20921204.946 10 0 59613 2700.00000 0 11878374.042 -4810696.267 -22042551.843 10 0 59613 3600.00000 0 11348435.361 -2096350.349 -22735284.048 10 0 59613 4500.00000 0 11008990.005 706933.719 -22985903.818 10 0 59613 5400.00000 0 10872373.332 3530781.387 -22789515.570 10 0 59613 6300.00000 0 10938784.593 6305677.903 -22149922.802 10 0 59613 7200.00000 0 11196307.946 8963619.174 -21079555.325 10 0 59613 8100.00000 0 11621462.210 11440702.568 -19599228.087 10 0 59613 9000.00000 0 12180256.092 13679550.257 -17737736.098 10 0 59613 9900.00000 0 12829704.209 15631464.505 -15531293.192 10 0 59613 10800.00000 0 13519739.659 17258225.624 -13022825.424 10 0 59613 11700.00000 0 14195442.051 18533458.176 -10261132.811 10 0 59613 12600.00000 0 14799486.422 19443509.053 -7299935.921 10 0 59613 13500.00000 0 15274708.999 19987801.724 -4196826.128 10 0 59613 14400.00000 0 15566680.782 20178652.949 -1012140.380 10 0 59613 15300.00000 0 15626179.494 20040560.971 2192216.982 10 0 59613 16200.00000 0 15411454.864 19608996.536 5353981.825 10 0 59613 17100.00000 0 14890190.947 18928749.028 8411743.207 10 0 59613 18000.00000 0 14041082.192 18051898.646 11306137.566 10 0 59613 18900.00000 0 12854956.377 17035501.181 13981000.639 10 0 59613 19800.00000 0 11335396.723 15939083.705 16384454.712 10 0 59613 20700.00000 0 9498836.725 14822057.125 18469910.217 10 0 59613 21600.00000 0 7374123.245 13741154.602 20196962.797 10 0 59613 22500.00000 0 5001565.637 12748003.319 21532169.157 10 0 59613 23400.00000 0 2431510.025 11886931.087 22449687.483 10 0 59613 24300.00000 0 -277502.697 11193099.142 22931770.974 10 0 59613 25200.00000 0 -3060919.501 10691038.575 22969105.778 10 0 59613 26100.00000 0 -5850608.857 10393650.946 22560987.462 10 0 59613 27000.00000 0 -8577445.642 10301714.186 21715333.044 10 0 59613 27900.00000 0 -11173941.413 10403913.954 20448528.495 10 0 59613 28800.00000 0 -13576812.124 10677398.789 18785114.473 10 0 59613 29700.00000 0 -15729377.995 11088835.677 16757315.929 10 0 59613 30600.00000 0 -17583696.940 11595921.851 14404423.977 10 0 59613 31500.00000 0 -19102343.641 12149289.533 11772041.230 10 0 59613 32400.00000 0 -20259760.933 12694723.831 8911204.373 10 0 59613 33300.00000 0 -21043127.618 13175600.651 5877400.200 10 0 59613 34200.00000 0 -21452706.758 13535442.003 2729493.630 10 0 59613 35100.00000 0 -21501660.118 13720480.811 -471411.876 10 0 59613 36000.00000 0 -21215336.690 13682126.580 -3663159.568 10 0 59613 36900.00000 0 -20630065.326 13379227.170 -6783747.154 10 0 59613 37800.00000 0 -19791502.380 12780030.227 -9772533.302 10 0 59613 38700.00000 0 -18752604.104 11863760.260 -12571419.130 10 0 59613 39600.00000 0 -17571309.412 10621743.483 -15125981.134 10 0 59613 40500.00000 0 -16308030.856 9058031.483 -17386533.158 10 0 59613 41400.00000 0 -15023059.774 7189495.837 -19309096.409 10 0 59613 42300.00000 0 -13773995.130 5045388.166 -20856258.319 10 0 59613 43200.00000 0 -12613304.471 2666382.497 -21997903.424 10 0 59613 44100.00000 0 -11586119.754 103138.580 -22711801.985 10 0 59613 45000.00000 0 -10728360.817 -2585554.985 -22984044.844 10 0 59613 45900.00000 0 -10065265.332 -5334981.418 -22809316.063 10 0 59613 46800.00000 0 -9610386.891 -8076949.371 -22190998.027 10 0 59613 47700.00000 0 -9365103.114 -10742397.904 -21141106.853 10 0 59613 48600.00000 0 -9318654.127 -13264044.865 -19680059.280 10 0 59613 49500.00000 0 -9448709.342 -15578968.859 -17836275.345 10 0 59613 50400.00000 0 -9722438.157 -17631017.434 -15645624.473 10 0 59613 51300.00000 0 -10098038.869 -19372941.493 -13150725.619 10 0 59613 52200.00000 0 -10526660.597 -20768167.209 -10400115.022 10 0 59613 53100.00000 0 -10954636.366 -21792131.862 -7447297.966 10 0 59613 54000.00000 0 -11325932.189 -22433128.385 -4349703.245 10 0 59613 54900.00000 0 -11584707.807 -22692624.117 -1167561.094 10 0 59613 55800.00000 0 -11677880.003 -22585041.373 2037272.945 10 0 59613 56700.00000 0 -11557579.311 -22137010.246 5202524.734 10 0 59613 57600.00000 0 -11183395.562 -21386126.328 8266714.786 10 0 59613 58500.00000 0 -10524316.795 -20379266.774 11170353.872 10 0 59613 59400.00000 0 -9560279.186 -19170536.695 13857097.458 10 0 59613 60300.00000 0 -8283262.160 -17818933.128 16274836.534 10 0 59613 61200.00000 0 -6697882.220 -16385825.372 18376703.754 10 0 59613 62100.00000 0 -4821460.062 -14932357.803 20121975.927 10 0 59613 63000.00000 0 -2683557.583 -13516884.035 21476856.076 10 0 59613 63900.00000 0 -325003.533 -12192539.589 22415120.692 10 0 59613 64800.00000 0 2203552.387 -11005053.998 22918620.659 10 0 59613 65700.00000 0 4843497.783 -9990892.997 22977626.931 10 0 59613 66600.00000 0 7530451.910 -9175807.527 22591015.001 10 0 59613 67500.00000 0 10196706.277 -8573849.190 21766285.011 10 0 59613 68400.00000 0 12773811.431 -8186892.427 20519417.277 10 0 59613 69300.00000 0 15195203.806 -8004682.677 18874565.830 10 0 59613 70200.00000 0 17398764.745 -8005407.973 16863595.483 10 0 59613 71100.00000 0 19329206.443 -8156769.667 14525470.657 10 0 59613 72000.00000 0 20940186.331 -8417507.245 11905507.051 10 0 59613 72900.00000 0 22196062.469 -8739313.114 9054499.803 10 0 59613 73800.00000 0 23073217.160 -9069056.805 6027744.243 10 0 59613 74700.00000 0 23560893.596 -9351224.883 2883967.696 10 0 59613 75600.00000 0 23661510.635 -9530473.444 -315807.366 10 0 59613 76500.00000 0 23390442.482 -9554185.128 -3509446.924 10 0 59613 77400.00000 0 22775272.396 -9374922.032 -6634912.632 10 0 59613 78300.00000 0 21854551.754 -8952670.046 -9631468.977 10 0 59613 79200.00000 0 20676116.589 -8256778.718 -12440866.541 10 0 59613 80100.00000 0 19295032.443 -7267513.439 -15008477.854 10 0 59613 81000.00000 0 17771254.078 -5977153.018 -17284363.331 10 0 59613 81900.00000 0 16167098.545 -4390584.772 -19224246.241 10 0 59613 82800.00000 0 14544638.038 -2525370.512 -20790377.391 10 0 59613 83700.00000 0 12963122.151 -411279.015 -21952272.576 10 0 59613 84600.00000 0 11476537.834 1910697.010 -22687308.387 10 0 59613 85500.00000 0 10131409.471 4389799.648 -22981164.724 10 0 59614 0.00000 0 8964931.307 6967380.289 -22828105.469 10 0 59614 900.00000 0 8003509.692 9579114.103 -22231091.652 10 0 59614 1800.00000 0 7261777.447 12157459.420 -21201725.150 10 0 59614 2700.00000 0 6742119.072 14634264.716 -19760023.608 10 0 59614 3600.00000 0 6434727.666 16943411.539 -17934030.895 10 0 59614 4500.00000 0 6318189.745 19023384.763 -15759270.514 10 0 59614 5400.00000 0 6360572.551 20819662.931 -13278052.493 10 0 59614 6300.00000 0 6520967.084 22286829.070 -10538647.171 10 0 59614 7200.00000 0 6751420.767 23390313.905 -7594342.137 10 0 59614 8100.00000 0 6999177.079 24107698.927 -4502400.940 10 0 59614 9000.00000 0 7209126.459 24429525.229 -1322944.231 10 0 59614 9900.00000 0 7326363.845 24359574.856 1882224.248 10 0 59614 10800.00000 0 7298743.739 23914613.765 5050823.401 10 0 59614 11700.00000 0 7079323.873 23123608.188 8121308.206 10 0 59614 12600.00000 0 6628593.472 22026448.363 11034066.647 10 0 59614 13500.00000 0 5916391.383 20672234.281 13732576.623 10 0 59614 14400.00000 0 4923432.616 19117196.300 16164500.284 10 0 59614 15300.00000 0 3642378.547 17422338.581 18282694.694 10 0 59614 16200.00000 0 2078405.340 15650904.490 20046119.720 10 0 59614 17100.00000 0 249246.161 13865770.140 21420626.249 10 0 59614 18000.00000 0 -1815295.144 12126874.839 22379610.290 10 0 59614 18900.00000 0 -4074339.380 10488795.182 22904521.204 10 0 59614 19800.00000 0 -6477395.794 8998563.169 22985215.122 10 0 59614 20700.00000 0 -8966234.359 7693818.394 22620147.340 10 0 59614 21600.00000 0 -11477089.928 6601370.200 21816400.502 10 0 59614 22500.00000 0 -13943107.899 5736228.671 20589548.106 10 0 59614 23400.00000 0 -16296930.983 5101143.899 18963355.876 10 0 59614 24300.00000 0 -18473320.752 4686671.867 16969326.314 10 0 59614 25200.00000 0 -20411706.013 4471763.526 14646094.551 10 0 59614 26100.00000 0 -22058552.668 4424851.873 12038686.442 10 0 59614 27000.00000 0 -23369456.920 4505391.091 9197652.422 10 0 59614 27900.00000 0 -24310874.778 4665782.788 6178093.099 10 0 59614 28800.00000 0 -24861415.621 4853608.076 3038594.929 10 0 59614 29700.00000 0 -25012645.601 5014071.106 -159903.797 10 0 59614 30600.00000 0 -24769366.955 5092550.571 -3355294.857 10 0 59614 31500.00000 0 -24149361.165 5037150.836 -6485506.751 10 0 59614 32400.00000 0 -23182606.470 4801144.165 -9489712.481 10 0 59614 33300.00000 0 -21910002.254 4345199.825 -12309514.578 10 0 59614 34200.00000 0 -20381653.749 3639304.738 -14890083.825 10 0 59614 35100.00000 0 -18654788.967 2664293.264 -17181229.119 10 0 59614 36000.00000 0 -16791395.259 1412920.074 -19138377.333 10 0 59614 36900.00000 0 -14855674.759 -109570.603 -20723443.751 10 0 59614 37800.00000 0 -12911425.398 -1885404.896 -21905576.053 10 0 59614 38700.00000 0 -11019457.232 -3884771.653 -22661757.293 10 0 59614 39600.00000 0 -9235152.266 -6066828.038 -22977256.071 10 0 59614 40500.00000 0 -7606269.708 -8381177.599 -22845915.191 10 0 59614 41400.00000 0 -6171088.182 -10769760.213 -22270273.146 10 0 59614 42300.00000 0 -4956962.262 -13169075.779 -21261515.965 10 0 59614 43200.00000 0 -3979353.081 -15512649.592 -19839260.287 10 0 59614 44100.00000 0 -3241372.853 -17733636.933 -18031171.647 10 0 59614 45000.00000 0 -2733861.517 -19767458.373 -15872425.297 10 0 59614 45900.00000 0 -2435991.154 -21554355.869 -13405019.902 10 0 59614 46800.00000 0 -2316371.595 -23041762.841 -10676957.426 10 0 59614 47700.00000 0 -2334609.408 -24186389.060 -7741305.308 10 0 59614 48600.00000 0 -2443253.207 -24955933.139 -4655159.468 10 0 59614 49500.00000 0 -2590041.867 -25330351.042 -1478528.676 10 0 59614 50400.00000 0 -2720359.424 -25302627.723 1726837.329 10 0 59614 51300.00000 0 -2779791.694 -24879020.060 4898652.604 10 0 59614 52200.00000 0 -2716675.490 -24078761.556 7975308.623 10 0 59614 53100.00000 0 -2484531.801 -22933241.995 10897072.545 10 0 59614 54000.00000 0 -2044279.409 -21484697.353 13607246.563 10 0 59614 54900.00000 0 -1366134.927 -19784465.646 16053265.740 10 0 59614 55800.00000 0 -431118.732 -17890882.506 18187713.131 10 0 59614 56700.00000 0 767897.003 -15866904.947 19969233.026 10 0 59614 57600.00000 0 2225642.670 -13777562.788 21363325.281 10 0 59614 58500.00000 0 3924431.304 -11687343.989 22343006.203 10 0 59614 59400.00000 0 5834665.878 -9657622.374 22889324.091 10 0 59614 60300.00000 0 7915853.451 -7744234.128 22991720.359 10 0 59614 61200.00000 0 10118084.750 -5995302.943 22648229.895 10 0 59614 62100.00000 0 12383918.712 -4449403.173 21865517.304 10 0 59614 63000.00000 0 14650594.721 -3134136.172 20658748.454 10 0 59614 63900.00000 0 16852481.650 -2065177.984 19051299.678 10 0 59614 64800.00000 0 18923662.972 -1245836.940 17074309.843 10 0 59614 65700.00000 0 20800551.354 -667138.661 14766083.224 10 0 59614 66600.00000 0 22424424.528 -308434.190 12171354.036 10 0 59614 67500.00000 0 23743777.237 -138505.121 9340425.966 10 0 59614 68400.00000 0 24716391.327 -117118.884 6328202.612 10 0 59614 69300.00000 0 25311037.352 -196968.393 3193127.051 10 0 59614 70200.00000 0 25508736.241 -325914.008 -3949.300 10 0 59614 71100.00000 0 25303527.721 -449432.786 -3200946.816 10 0 59614 72000.00000 0 24702712.687 -513171.131 -6335763.675 10 0 59614 72900.00000 0 23726558.783 -465492.281 -9347484.152 10 0 59614 73800.00000 0 22407480.978 -259910.117 -12177565.318 10 0 59614 74700.00000 0 20788731.048 142694.561 -14770978.554 10 0 59614 75600.00000 0 18922650.580 772170.106 -17077283.308 10 0 59614 76500.00000 0 16868560.439 1647584.136 -19051611.807 10 0 59614 77400.00000 0 14690375.018 2776172.712 -20655545.279 10 0 59614 78300.00000 0 12454041.011 4152794.337 -21857864.465 10 0 59614 79200.00000 0 10224907.734 5759913.200 -22635159.762 10 0 59614 80100.00000 0 8065138.857 7568113.762 -22972289.063 10 0 59614 81000.00000 0 6031273.447 9537126.439 -22862674.409 10 0 59614 81900.00000 0 4172037.873 11617322.615 -22308431.670 10 0 59614 82800.00000 0 2526499.557 13751617.333 -21320330.619 10 0 59614 83700.00000 0 1122639.062 15877700.867 -19917586.109 10 0 59614 84600.00000 0 -23600.610 17930506.397 -18127484.203 10 0 59614 85500.00000 0 -908748.633 19844810.829 -15984850.391 99